When you browse on this site, cookies collect data to enhance your experience and personalize the content and advertising you see.
Visit our Privacy Policy to learn more. By continuing to use the site, you agree to this use of cookies and data.
  • En España
  • Lista de países
  • Para 7 días
  • Temperatura del agua
  • Mapa Satelital
  • El tiempo en el mapa
  • Informadores
  • user-avatar
    Iniciar sesión

    Tiempo cada hora Atlixco

    Hoy, 18 Febrero, Lunes

    Tiempo Temperatura Precipitaciones Viento Presión Humedad
    00:00 +19°C° 0 mm 1 mps 611 mmHg 31%
    01:00 +18°C° 0 mm 1 mps 611 mmHg 32%
    02:00 +18°C° 0 mm 1 mps 611 mmHg 33%
    03:00 +18°C° 0 mm 1 mps 611 mmHg 34%
    04:00 +16°C° 0 mm 1 mps 611 mmHg 34%
    05:00 +16°C° 0 mm 2 mps 610 mmHg 35%
    06:00 +19°C° 0 mm 1 mps 611 mmHg 33%
    07:00 +21°C° 0 mm 1 mps 612 mmHg 30%
    08:00 +21°C° 0 mm 0 mps 614 mmHg 28%
    09:00 +25°C° 0 mm 1 mps 614 mmHg 25%
    10:00 +26°C° 0 mm 2 mps 614 mmHg 21%
    11:00 +28°C° 0 mm 3 mps 615 mmHg 18%
    12:00 +29°C° 0 mm 3 mps 614 mmHg 18%
    13:00 +29°C° 0 mm 4 mps 614 mmHg 18%
    14:00 +30°C° 0 mm 4 mps 613 mmHg 18%
    15:00 +28°C° 0 mm 3 mps 613 mmHg 20%
    16:00 +27°C° 0 mm 3 mps 612 mmHg 21%
    17:00 +26°C° 0 mm 2 mps 612 mmHg 23%
    18:00 +24°C° 0 mm 2 mps 612 mmHg 24%
    19:00 +23°C° 0 mm 2 mps 612 mmHg 25%
    20:00 +21°C° 0 mm 1 mps 612 mmHg 26%
    21:00 +20°C° 0 mm 1 mps 612 mmHg 26%
    22:00 +20°C° 0 mm 1 mps 612 mmHg 27%
    23:00 +19°C° 0 mm 1 mps 612 mmHg 28%

    Mañana, 19 Febrero, Martes

    Tiempo Temperatura Precipitaciones Viento Presión Humedad
    00:00 +19°C° 0 mm 1 mps 612 mmHg 30%
    01:00 +18°C° 0 mm 1 mps 611 mmHg 31%
    02:00 +16°C° 0 mm 1 mps 611 mmHg 32%
    03:00 +16°C° 0 mm 1 mps 610 mmHg 33%
    04:00 +16°C° 0 mm 1 mps 610 mmHg 33%
    05:00 +15°C° 0 mm 1 mps 610 mmHg 34%
    06:00 +18°C° 0 mm 1 mps 611 mmHg 32%
    07:00 +19°C° 0 mm 1 mps 612 mmHg 31%
    08:00 +21°C° 0 mm 1 mps 613 mmHg 29%
    09:00 +23°C° 0 mm 2 mps 613 mmHg 26%
    10:00 +24°C° 0 mm 3 mps 614 mmHg 24%
    11:00 +26°C° 0 mm 4 mps 614 mmHg 21%
    12:00 +26°C° 0 mm 4 mps 613 mmHg 19%
    13:00 +27°C° 0 mm 5 mps 613 mmHg 17%
    14:00 +27°C° 0 mm 5 mps 612 mmHg 16%
    15:00 +26°C° 0 mm 4 mps 612 mmHg 18%
    16:00 +25°C° 0 mm 4 mps 611 mmHg 20%
    17:00 +24°C° 0 mm 3 mps 611 mmHg 23%
    18:00 +21°C° 0 mm 2 mps 611 mmHg 26%
    19:00 +20°C° 0 mm 2 mps 611 mmHg 30%
    20:00 +19°C° 0 mm 1 mps 611 mmHg 33%
    21:00 +19°C° 0 mm 1 mps 610 mmHg 36%
    22:00 +18°C° 0 mm 1 mps 610 mmHg 39%
    23:00 +16°C° 0 mm 1 mps 610 mmHg 42%

    Pasado mañana, 20 Febrero, Miércoles

    Tiempo Temperatura Precipitaciones Viento Presión Humedad
    00:00 +16°C° 0 mm 1 mps 610 mmHg 43%
    01:00 +15°C° 0 mm 1 mps 609 mmHg 43%
    02:00 +15°C° 0 mm 1 mps 609 mmHg 44%
    03:00 +15°C° 0 mm 1 mps 608 mmHg 44%
    04:00 +14°C° 0 mm 1 mps 608 mmHg 43%
    05:00 +14°C° 0 mm 1 mps 608 mmHg 43%
    06:00 +16°C° 0 mm 1 mps 609 mmHg 38%
    07:00 +18°C° 0 mm 1 mps 610 mmHg 34%
    08:00 +20°C° 0 mm 1 mps 611 mmHg 30%
    09:00 +21°C° 0 mm 2 mps 612 mmHg 27%
    10:00 +24°C° 0 mm 2 mps 612 mmHg 24%
    11:00 +25°C° 0 mm 3 mps 612 mmHg 21%
    12:00 +26°C° 0 mm 4 mps 612 mmHg 19%
    13:00 +26°C° 0 mm 4 mps 611 mmHg 18%
    14:00 +27°C° 0 mm 5 mps 610 mmHg 16%
    15:00 +26°C° 0 mm 4 mps 610 mmHg 17%
    16:00 +25°C° 0 mm 3 mps 610 mmHg 19%
    17:00 +24°C° 0 mm 3 mps 610 mmHg 20%
    18:00 +21°C° 0 mm 2 mps 610 mmHg 22%
    19:00 +19°C° 0 mm 2 mps 610 mmHg 24%
    20:00 +19°C° 0 mm 1 mps 610 mmHg 26%
    21:00 +18°C° 0 mm 1 mps 610 mmHg 27%
    22:00 +18°C° 0 mm 1 mps 610 mmHg 28%
    23:00 +16°C° 0 mm 1 mps 610 mmHg 29%

    21 Febrero, Jueves

    Tiempo Temperatura Precipitaciones Viento Presión Humedad
    00:00 +16°C° 0 mm 1 mps 609 mmHg 30%
    01:00 +15°C° 0 mm 1 mps 609 mmHg 31%
    02:00 +14°C° 0 mm 1 mps 608 mmHg 33%
    03:00 +14°C° 0 mm 1 mps 608 mmHg 33%
    04:00 +14°C° 0 mm 1 mps 608 mmHg 34%
    05:00 +13°C° 0 mm 1 mps 608 mmHg 34%
    06:00 +15°C° 0 mm 1 mps 610 mmHg 32%
    07:00 +18°C° 0 mm 1 mps 611 mmHg 29%
    08:00 +20°C° 0 mm 1 mps 612 mmHg 27%
    09:00 +21°C° 0 mm 2 mps 612 mmHg 24%
    10:00 +24°C° 0 mm 3 mps 612 mmHg 21%
    11:00 +25°C° 0 mm 4 mps 613 mmHg 19%
    12:00 +26°C° 0 mm 4 mps 612 mmHg 17%
    13:00 +26°C° 0 mm 4 mps 611 mmHg 16%
    14:00 +27°C° 0 mm 5 mps 611 mmHg 14%
    15:00 +26°C° 0 mm 4 mps 611 mmHg 16%
    16:00 +25°C° 0 mm 4 mps 610 mmHg 17%
    17:00 +24°C° 0 mm 3 mps 610 mmHg 19%
    18:00 +21°C° 0 mm 2 mps 610 mmHg 21%
    19:00 +19°C° 0 mm 2 mps 610 mmHg 23%
    20:00 +19°C° 0 mm 1 mps 610 mmHg 26%
    21:00 +18°C° 0 mm 1 mps 610 mmHg 26%
    22:00 +18°C° 0 mm 1 mps 610 mmHg 27%
    23:00 +16°C° 0 mm 1 mps 610 mmHg 28%

    22 Febrero, Viernes

    Tiempo Temperatura Precipitaciones Viento Presión Humedad
    00:00 +16°C° 0 mm 1 mps 610 mmHg 28%
    01:00 +16°C° 0 mm 1 mps 610 mmHg 28%
    02:00 +15°C° 0 mm 1 mps 609 mmHg 28%
    03:00 +15°C° 0 mm 1 mps 609 mmHg 28%
    04:00 +15°C° 0 mm 1 mps 609 mmHg 28%
    05:00 +14°C° 0 mm 1 mps 609 mmHg 29%
    06:00 +16°C° 0 mm 1 mps 611 mmHg 26%
    07:00 +19°C° 0 mm 1 mps 612 mmHg 23%
    08:00 +19°C° 0 mm 0 mps 613 mmHg 21%
    09:00 +23°C° 0 mm 1 mps 614 mmHg 19%
    10:00 +25°C° 0 mm 2 mps 614 mmHg 17%
    11:00 +26°C° 0 mm 3 mps 614 mmHg 16%
    12:00 +27°C° 0 mm 3 mps 614 mmHg 16%
    13:00 +27°C° 0 mm 3 mps 613 mmHg 16%
    14:00 +28°C° 0 mm 4 mps 613 mmHg 16%
    15:00 +27°C° 0 mm 3 mps 612 mmHg 19%
    16:00 +26°C° 0 mm 3 mps 612 mmHg 21%
    17:00 +25°C° 0 mm 3 mps 612 mmHg 23%
    18:00 +23°C° 0 mm 2 mps 612 mmHg 26%
    19:00 +21°C° 0 mm 2 mps 612 mmHg 29%
    20:00 +20°C° 0 mm 1 mps 612 mmHg 31%
    21:00 +19°C° 0 mm 1 mps 612 mmHg 33%
    22:00 +19°C° 0 mm 1 mps 612 mmHg 34%
    23:00 +19°C° 0 mm 1 mps 611 mmHg 36%

    23 Febrero, Sábado

    Tiempo Temperatura Precipitaciones Viento Presión Humedad
    00:00 +18°C° 0 mm 1 mps 611 mmHg 36%
    01:00 +18°C° 0 mm 1 mps 611 mmHg 37%
    02:00 +16°C° 0 mm 1 mps 610 mmHg 38%
    03:00 +16°C° 0 mm 1 mps 610 mmHg 38%
    04:00 +15°C° 0 mm 1 mps 610 mmHg 39%
    05:00 +15°C° 0 mm 1 mps 611 mmHg 39%
    06:00 +18°C° 0 mm 1 mps 612 mmHg 36%
    07:00 +18°C° 0 mm 0 mps 613 mmHg 32%
    08:00 +20°C° 0 mm 0 mps 614 mmHg 29%
    09:00 +24°C° 0 mm 1 mps 614 mmHg 27%
    10:00 +25°C° 0 mm 2 mps 615 mmHg 25%
    11:00 +27°C° 0 mm 2 mps 615 mmHg 23%
    12:00 +27°C° 0 mm 3 mps 614 mmHg 23%
    13:00 +28°C° 0 mm 3 mps 614 mmHg 22%
    14:00 +29°C° 0 mm 4 mps 613 mmHg 22%
    15:00 +28°C° 0 mm 4 mps 613 mmHg 24%
    16:00 +27°C° 0 mm 3 mps 612 mmHg 26%
    17:00 +26°C° 0 mm 3 mps 612 mmHg 28%
    18:00 +24°C° 0 mm 2 mps 612 mmHg 32%
    19:00 +21°C° 0 mm 2 mps 612 mmHg 35%
    20:00 +21°C° 0 mm 1 mps 612 mmHg 39%
    21:00 +20°C° 0 mm 1 mps 612 mmHg 40%
    22:00 +20°C° 0 mm 1 mps 612 mmHg 41%
    23:00 +20°C° 0 mm 1 mps 612 mmHg 42%
    Mostrar más